Location: Croisilles
(50.1998°N, 2.8793°E)
Time: 20:52:18
(UTC+00:00)

Cosmos 1300 - Pass Details

Date: 21 January 2021
Orbit: 511 x 513 km, 82.5° (Epoch: 02 March)

Event Time Altitude Azimuth Distance (km) Brightness Sun altitude
Rises 17:07:00 0° 350° (N) 2,643 6.2 -7.0°
Reaches altitude 10° 17:09:09 10° 352° (N) 1,751 5.3 -7.3°
Maximum altitude 17:12:59 82° 80° (E) 526 2.6 -7.9°
Drops below altitude 10° 17:16:48 10° 168° (SSE) 1,735 5.5 -8.4°
Sets 17:18:55 0° 169° (S) 2,616 6.4 -8.8°
